Regional Weather Roundup
Issued by NWS State College, PA

Current Version | Previous Version | Text Only | Print | Product List | Glossary On
Versions: 1 2 3 4 5 6 7 8 9 10 11 12 13 14 15 16 17 18 19 20 21 22 23 24 25 26 27 28 29 30 31 32 33 34 35 36 37 38 39 40 41 42 43 44 45 46 47 48 49 50
000
ASUS41 KCTP 020203
RWRCTP

REGIONAL WEATHER ROUNDUP
NATIONAL WEATHER SERVICE STATE COLLEGE PA
900 PM EST SUN FEB 01 2015

Note: "fair" indicates few or no clouds below 12,000 feet with no
significant weather and/or obstructions to visibility.

* = STATION THAT DOES NOT REPORT PRECIPITATION /E.G. RAIN...SNOW...ETC/
    THUNDER OR FOG.

PAZ002>004-007>009-013>016-020>023-029>032-020300-
WESTERN PENNSYLVANIA

CITY           SKY/WX    TMP DP  RH WIND       PRES   REMARKS
ERIE           LGT SNOW  24  21  88 NE14      29.71F VSB 3/4 WCI  12
MEADVILLE      SNOW      30  28  92 E9        29.63F VSB 1/2
FRANKLIN*      CLOUDY    30  27  86 E14       29.66F
NEW CASTLE     MIX PCPN  34  33  96 SE8       29.63F FOG
BEAVER COUNTY  NOT AVBL
BUTLER*        CLOUDY    34  32  93 E12       29.65F
PITTSBURGH INT LGT RAIN  36  35  96 SE13      29.62F
PITTSBURGH     LGT RAIN  36  32  85 SE13      29.62F
INDIANA*       CLOUDY    34  30  86 SE15G25   29.72F FOG
LATROBE        LGT RAIN  36  32  87 S6        29.68F
WASHINGTON CO* CLOUDY    37  34  87 S13       29.63F
$$

PAZ004>006-010>012-017>019-024>028-033>037-041-042-045-046-049>053-020300-
CENTRAL PENNSYLVANIA

CITY           SKY/WX    TMP DP  RH WIND       PRES   REMARKS
BRADFORD       LGT SNOW  25  21  85 SE15G22   29.71F VSB 3/4 WCI  13
DUBOIS         LGT SNOW  29  26  89 SE16G23   29.69F FOG
CLEARFIELD     CLOUDY    29  26  89 SE5       29.77F
JOHNSTOWN      LGT SNOW  27  23  85 SE18G26   29.70F FOG     WCI  14
ALTOONA        LGT SNOW  29  25  85 VRB6      29.81F FOG
STATE COLLEGE  CLOUDY    30  25  80 SE3       29.83F
WILLIAMSPORT   LGT SNOW  30  26  85 E10       29.91F FOG
SELINSGROVE    CLOUDY    31  29  92 SE5       29.94F FOG
FT INDIANTOWN  CLOUDY    30  28  92 E5        29.97F
CAPITAL CITY   LGT SNOW  32  26  78 E9        29.96F
HARRISBURG     CLOUDY    32  25  75 SE10      29.96F
YORK           LGT SNOW  33  25  72 VRB6      29.96F
$$

PAZ038>040-043-044-047-048-054-055-060>062-067>071-020300-
EASTERN PENNSYLVANIA

CITY           SKY/WX    TMP DP  RH WIND       PRES   REMARKS
SCRANTON       LGT SNOW  29  25  85 NE6       29.94F FOG
MOUNT POCONO   LGT SNOW  25  22  88 SE9       29.92F FOG
ALLENTOWN      LGT SNOW  30  28  93 E6        30.01F VSB 3/4
QUAKERTOWN*    CLOUDY    32  30  93 E5        30.02F VSB 1
READING        CLOUDY    32  28  85 CALM      29.99F
LANCASTER      CLOUDY    33  24  69 SE10      29.98F
COATESVILLE    CLOUDY    34  25  69 SE5       29.99F
POTTSTOWN      FLURRIES  32  27  81 E3        30.01F
BLUE BELL      CLOUDY    36  27  69 SE5       30.01F
DOYLESTOWN     LGT SNOW  30  30 100 CALM      30.03F FOG
WILLOW GROVE   NOT AVBL
NORTH PHILA    CLOUDY    36  23  59 SE7       30.06F
PHILADELPHIA   CLOUDY    36  21  54 SE8       30.04F
$$


USA.gov is the U.S. government's official web portal to all federal, state and local government web resources and services.